SCP
0 0 0 0 0 0 0 0 0 0 0 0 0 0 0 0 -0 0 0 0 0 0 0 0 0 0 0 0 0 0 0 0 0 0 0 0 0 0 0 0 0 0 0
0 0 0 0 0 0 0 0 0 0 -0 0 0 0 0 -0 -0 -0 -0 0 0 0 0 0 0 0 0 0 0 0 0 0 0 0 0 0 0 0 0 0 0 0 0
0 0 0 0 0 0 0 0 0 0 0 0 0 0 -0 0 0 0 0 0 0 0 0 0 0 0 0 0 0 0 0 0 0 0 0 0 0 0 0 0 0 0 0
0 0 0 -0 0 0 0 0 0 0 0 0 0 -0 0 0 0 0 0 0 0 0 0 0 0 0 0 0 0 0 0 0 0 0 0 0 0 0 0 0 0 0 0
0 0 0 0 0 0 0 0 0 0 0 0 0 -0 0 0 0 0 0 0 0 0 0 0 0 0 0 0 0 0 0 0 0 0 0 0 0 0 0 0 0 0 0
0 0 0 0 0 0 0 0 0 0 0 0 0 0 0 0 0 0 0 0 0 0 0 0 0 0 0 0 0 0 0 0 0 0 0 0 0 0 0 0 0 0 0
0 0 0 0 0 0 0 0 0 0 0 0 0 0 0 0 0 0 0 0 0 0 0 0 0 0 0 0 0 0 0 0 0 0 0 0 0 0 0 0 0 0 0
0 0 0 0 0 0 0 0 0 0 0 0 0 0 0 0 0 0 0 0 0 0 0 0 0 0 0 0 0 0 0 0 0 0 0 0 0 0 0 0 0 0 0
0 0 0 0 0 0 0 0 0 0 0 0 0 0 0 0 0 0 0 0 0 0 0 0 0 0 0 0 0 0 0 0 0 0 0 0 0 0 0 0 0 0 0
0 0 0 0 0 0 0 0 0 0 0 0 0 0 0 0 0 0 0 0 0 0 0 0 0 0 0 0 0 0 0 0 0 0 0 0 0 0 0 0 0 0 0
0 0 0 0 0 0 0 0 0 0 0 0 0 0 0 0 0 0 0 0 0 0 0 0 0 0 0 0 0 0 0 0 0 0 0 0 0 0 0 0 -0 0 0
0 0 0 0 0 0 0 0 0 0 0 0 0 0 0 0 0 0 0 0 0 0 0 0 0 0 0 0 0 0 0 0 0 0 0 0 0 0 0 -0 -0 -0 -0
0 0 0 0 0 0 0 0 0 0 0 0 0 0 0 0 0 0 0 0 0 0 0 0 0 0 0 0 0 0 0 0 0 0 0 0 0 0 0 0 -0 -0 -0
0 0 0 0 0 0 0 0 0 0 0 0 0 0 0 0 0 0 0 0 0 0 0 0 0 0 0 0 0 0 0 0 0 0 0 0 0 0 0 -0 -0 -0 -0
0 0 0 0 0 0 0 0 0 0 0 0 0 0 0 0 0 0 0 0 0 0 0 0 0 0 0 0 0 0 0 0 0 0 0 0 0 -0 -0 -0 -0 -0 0
0 0 0 0 0 0 0 0 0 0 0 0 0 0 0 0 0 0 0 0 0 0 0 0 0 0 0 0 0 0 0 0 0 0 0 0 -0 -0 -0 -0 -0 0 0
0 0 0 0 0 0 0 0 0 0 0 0 0 0 0 0 0 0 0 0 0 0 0 0 0 0 0 0 0 0 0 0 0 0 0 -0 -0 -0 -0 -0 -0 0 0
0 0 0 0 0 0 0 0 0 0 0 0 0 0 0 0 0 0 0 0 0 0 0 0 0 0 0 0 0 0 0 0 0 0 0 -0 -0 -0 -0 -0 0 0 0
0 0 0 0 0 0 0 0 0 0 0 0 0 0 0 0 0 0 0 0 0 0 0 0 0 0 0 0 0 0 0 0 0 0 -0 -0 -0 -0 -0 0 0 0 0
0 0 0 0 0 0 0 0 0 0 0 0 0 0 0 0 0 0 0 0 0 0 0 0 0 0 0 0 0 0 0 0 0 0 -0 -0 -0 -0 0 0 0 0 0
0 0 -0 0 0 0 0 0 0 0 0 0 -0 -0 0 0 0 0 0 0 0 0 0 0 0 0 0 0 0 0 0 0 0 0 0 0 0 0 0 0 0 0 0
0 0 0 0 0 0 0 0 0 0 -0 -0 -0 -0 0 -0 -0 -0 0 0 0 0 0 0 0 0 0 0 0 -0 -0 0 0 0 0 0 0 0 0 0 0 0 0
0 0 0 0 0 0 -0 -0 -0 -0 -0 -0 -0 -0 0 0 0 0 -0 -0 0 0 0 0 0 0 -0 -0 -0 -0 -0 0 0 0 0 0 0 0 0 0 0 0 0
0 0 0 0 0 0 -0 -0 -0 0 -0 0 -0 -0 -0 0 0 0 0 0 0 -0 -0 0 0 0 0 -0 -0 -0 -0 -0 0 0 0 0 0 0 0 0 0 0 0
-0 -0 -0 -0 -0 0 0 0 -0 -0 -0 -0 -0 -0 -0 -0 -0 -0 -0 -0 -0 -0 0 -0 -0 0 -0 -0 -0 -0 0 0 0 0 0 0 0 0 0 0 0 -0 0
-0 -0 -0 -0 -0 -0 -0 -0 -0 -0 -0 -0 -0 -0 -0 -0 -0 -0 -0 -0 -0 -0 -0 0 0 0 0 -0 -0 0 0 0 0 0 0 0 0 0 0 0 0 0 0
Wind_Speed_500mb
40 56 69 52 28 51 60 59 57 54 45 35 27 25 22 18 15 11 10 10 9 7 7 8 10 11 13 17 19 22 23 24 25 23 22 27 38 46 47 49 51 52 52
41 46 68 78 36 40 77 64 51 50 47 48 43 33 24 19 15 11 9 9 8 6 5 6 9 11 11 16 19 20 17 16 14 20 34 40 44 46 51 53 52 50 46
40 37 66 68 52 35 35 36 51 49 53 48 39 39 28 19 13 10 8 7 5 4 5 8 11 13 14 16 16 19 15 8 18 32 38 38 41 47 51 51 48 45 44
41 43 48 63 62 47 38 40 50 39 52 48 42 36 29 21 14 9 7 5 5 7 9 13 15 15 15 8 13 13 7 18 34 34 35 37 43 48 50 48 46 45 44
37 48 57 55 52 47 44 37 39 50 45 45 40 33 25 20 13 9 8 7 6 6 8 12 14 15 13 6 9 13 20 27 31 32 36 41 46 49 49 47 44 45 44
36 47 60 63 55 50 47 46 46 39 46 45 38 30 27 22 16 11 13 12 11 13 13 15 18 14 12 8 9 15 26 30 32 32 37 43 48 48 44 41 45 47 46
36 43 56 70 68 56 65 54 52 53 55 50 39 35 27 26 20 18 14 17 21 18 16 17 15 14 14 12 15 22 26 27 33 35 40 44 47 43 39 41 44 46 45
31 41 58 63 70 65 62 70 58 59 57 52 46 39 24 26 24 20 20 15 16 18 16 19 19 18 19 17 21 25 27 31 29 35 38 42 40 36 39 40 52 49 45
36 39 53 61 72 71 60 78 66 66 63 61 49 28 14 12 24 20 22 20 18 21 22 25 22 20 18 26 26 29 30 25 25 29 34 37 32 31 31 46 41 46 48
33 41 50 61 73 72 67 70 61 66 66 65 57 47 26 19 21 17 24 22 19 19 20 21 19 21 24 25 28 29 26 21 22 27 32 32 25 30 36 34 36 40 42
20 28 48 66 81 74 64 66 57 72 65 64 63 58 35 21 20 15 17 30 27 25 24 21 21 25 27 25 27 23 20 19 21 24 29 25 21 28 36 38 37 38 36
12 20 42 65 68 74 63 64 57 56 65 63 61 54 51 34 30 22 14 21 29 29 27 27 28 27 27 22 21 16 17 16 19 21 24 22 18 23 26 29 34 33 35
10 17 53 59 67 81 63 59 55 52 57 55 55 51 43 36 26 22 21 20 22 26 25 28 28 24 17 16 13 9 10 17 16 20 20 18 16 15 19 27 28 30 30
12 9 26 38 50 56 55 48 44 44 43 45 43 43 39 40 42 31 27 26 19 21 27 30 21 16 10 10 7 7 12 15 14 16 15 12 13 14 17 22 24 27 28
11 7 10 36 51 46 49 48 45 47 44 46 44 39 37 32 32 31 28 27 27 26 28 24 23 21 11 8 6 5 9 13 11 10 10 9 9 15 16 15 21 25 30
12 8 7 15 34 42 42 41 34 40 43 44 44 39 37 35 34 32 31 28 20 26 28 27 21 16 13 13 9 4 6 8 8 9 9 9 14 12 17 21 21 26 30
12 18 20 20 21 24 34 35 29 29 33 35 38 35 32 36 32 33 37 32 22 26 31 17 19 19 17 17 9 6 0 2 5 4 5 11 16 17 19 22 21 23 25
13 17 17 17 19 28 26 29 26 24 29 40 45 28 37 39 25 23 15 19 17 24 21 17 16 22 21 17 11 9 7 5 2 2 8 10 18 17 18 18 19 17 23
9 21 21 18 14 21 24 22 21 19 25 20 11 13 11 14 16 13 14 16 12 12 15 16 16 25 23 19 18 18 12 7 7 7 14 13 16 14 12 15 11 16 20
12 21 23 11 3 14 24 28 24 20 19 24 27 23 19 14 15 19 16 14 13 14 15 13 15 22 24 28 25 18 17 15 12 10 14 14 13 11 7 8 7 9 14
25 24 23 20 25 24 26 22 21 22 29 24 17 18 17 15 11 13 14 14 15 11 15 19 18 22 26 27 25 26 22 20 15 12 16 15 12 7 2 3 3 7 11
23 24 28 29 24 21 21 19 19 18 18 16 15 14 16 15 16 16 13 12 13 15 16 20 25 23 23 24 31 28 29 24 17 13 18 18 15 7 5 5 4 6 10
27 23 24 24 25 19 18 17 15 15 19 17 15 15 15 14 16 15 13 13 16 18 19 23 22 20 21 22 26 30 30 21 10 14 18 19 17 13 10 7 7 7 9
24 19 18 17 14 15 13 14 15 15 14 14 12 11 11 11 11 11 14 18 21 22 23 23 22 20 21 24 26 22 21 26 17 16 17 14 15 15 13 8 8 11 10
20 18 16 13 12 12 15 14 12 13 10 7 8 7 7 9 11 13 16 17 18 20 21 22 23 23 26 29 31 35 35 31 22 21 18 12 15 13 13 10 8 17 15
16 15 16 13 13 16 16 12 11 11 9 9 6 6 8 13 14 18 21 20 17 18 19 21 22 25 29 30 34 34 28 29 22 19 21 21 15 15 11 12 11 13 18
Wind_Direction_500mb
213 222 214 218 228 214 217 210 201 194 178 157 189 196 180 171 163 155 147 148 158 163 175 196 243 257 282 302 309 311 314 320 326 342 333 323 323 325 328 327 326 324 326
208 239 211 216 231 221 216 210 196 183 158 166 180 184 174 163 158 147 140 159 178 188 213 240 262 281 295 302 308 322 345 357 336 317 328 325 333 333 331 330 330 331 330
237 214 207 212 216 230 216 228 197 183 168 172 175 174 171 166 161 154 141 145 168 211 248 269 281 303 307 317 0 10 5 271 319 323 325 330 337 333 334 334 333 335 338
230 234 197 206 213 220 223 214 195 186 177 175 182 178 167 177 176 184 193 207 247 265 272 274 286 299 321 355 53 74 288 308 318 322 328 336 338 337 336 335 337 340 343
226 221 215 211 219 213 217 221 217 186 184 189 180 171 171 187 195 204 215 225 242 265 277 295 303 299 298 255 192 268 298 312 320 331 334 336 338 339 339 342 347 350 350
235 223 220 209 211 220 223 215 210 196 200 186 179 177 192 195 202 206 220 244 255 265 283 298 300 278 282 258 268 306 314 323 330 332 339 339 339 341 349 356 357 360 1
237 235 222 216 216 219 224 215 212 198 193 193 182 185 192 201 206 220 232 248 252 255 277 284 281 281 290 301 303 314 317 317 326 337 337 340 344 351 5 6 6 4 360
239 239 225 215 214 210 216 213 206 200 199 197 189 188 200 217 211 222 244 243 252 250 258 265 286 297 306 309 313 308 316 314 321 337 338 341 353 10 19 18 28 20 21
239 245 224 216 216 212 208 208 207 206 200 195 199 183 177 205 213 226 236 237 238 240 247 251 277 295 298 307 305 306 311 310 327 335 340 346 2 25 26 43 33 34 36
260 242 215 210 212 209 210 208 205 212 202 199 205 200 207 211 187 192 209 224 233 240 243 245 266 292 297 298 303 310 317 325 330 342 346 350 19 38 43 40 42 42 45
350 211 214 206 210 204 211 198 206 198 211 209 206 199 206 212 203 196 201 222 231 234 239 255 282 286 288 297 307 318 319 328 344 347 347 2 30 47 51 46 45 47 46
356 213 190 196 207 207 205 196 203 207 215 208 210 210 212 214 209 205 218 226 236 246 251 265 276 283 295 307 309 322 326 332 335 347 358 6 24 46 54 59 49 48 46
37 314 172 194 201 208 195 196 205 212 209 204 209 216 219 225 227 231 249 250 245 251 258 269 272 283 302 312 317 332 336 329 337 355 2 13 30 37 55 56 54 54 52
132 261 126 166 172 180 188 192 194 191 196 203 207 213 221 225 233 240 252 258 256 263 256 264 270 273 282 294 286 311 325 331 1 358 7 17 36 45 65 58 59 59 58
148 120 136 145 169 172 177 187 194 198 194 199 207 209 214 217 223 234 245 255 265 264 257 243 247 248 241 253 228 301 338 338 3 13 27 31 52 63 71 64 59 61 57
131 197 168 164 143 164 181 186 187 208 208 212 207 212 211 217 231 243 258 261 269 261 264 230 242 249 234 221 234 260 309 23 18 29 22 29 74 84 89 79 63 58 51
146 148 140 172 182 170 172 180 179 184 194 205 211 208 226 227 238 254 262 258 260 264 261 249 241 235 220 208 215 222 129 40 5 2 61 72 90 97 111 92 69 56 46
171 151 153 120 140 179 163 185 179 206 210 209 204 228 239 222 241 259 243 252 261 282 246 230 212 221 210 207 210 203 198 171 90 343 82 88 102 102 98 94 73 54 41
167 164 144 163 174 168 161 176 186 190 191 169 143 185 179 226 235 231 262 270 255 239 243 255 241 210 205 206 218 206 183 157 171 138 116 104 109 104 98 94 79 49 31
149 139 123 115 110 185 196 195 208 198 214 230 213 212 213 214 235 231 215 217 224 226 254 263 233 210 209 211 200 204 189 187 182 162 139 132 119 105 100 107 81 30 22
137 138 148 161 150 132 123 136 142 167 179 173 186 216 216 209 191 220 218 229 238 223 229 242 234 229 224 226 219 211 198 207 191 176 166 162 155 140 115 66 54 9 10
131 126 133 141 134 125 125 128 135 151 164 172 175 162 177 193 196 213 224 240 244 240 235 243 234 247 252 230 216 213 210 207 191 207 185 189 182 224 281 300 333 9 5
131 124 121 123 133 143 142 141 148 169 166 159 168 177 192 205 215 224 230 239 245 246 246 246 248 251 238 227 215 211 215 208 220 233 193 194 194 210 240 299 307 346 351
115 126 132 138 141 146 156 160 162 155 156 161 174 189 202 213 221 231 238 250 249 247 248 246 243 231 206 209 211 215 208 204 227 215 209 219 218 216 237 265 320 328 320
120 123 136 148 160 162 164 169 171 169 172 199 204 192 223 246 253 254 262 264 263 259 250 238 229 222 211 204 203 201 204 205 218 216 219 248 241 234 248 263 302 329 334
106 128 142 157 154 156 159 160 175 174 180 186 205 251 276 280 271 266 265 265 261 255 251 239 228 218 209 204 204 210 221 219 221 226 233 234 247 239 265 262 270 306 323
Wind_Speed_850mb
40 56 69 52 28 51 60 59 57 54 45 35 27 25 22 18 15 11 10 10 9 7 7 8 10 11 13 17 19 22 23 24 25 23 22 27 38 46 47 49 51 52 52
41 46 68 78 36 40 77 64 51 50 47 48 43 33 24 19 15 11 9 9 8 6 5 6 9 11 11 16 19 20 17 16 14 20 34 40 44 46 51 53 52 50 46
40 37 66 68 52 35 35 36 51 49 53 48 39 39 28 19 13 10 8 7 5 4 5 8 11 13 14 16 16 19 15 8 18 32 38 38 41 47 51 51 48 45 44
41 43 48 63 62 47 38 40 50 39 52 48 42 36 29 21 14 9 7 5 5 7 9 13 15 15 15 8 13 13 7 18 34 34 35 37 43 48 50 48 46 45 44
37 48 57 55 52 47 44 37 39 50 45 45 40 33 25 20 13 9 8 7 6 6 8 12 14 15 13 6 9 13 20 27 31 32 36 41 46 49 49 47 44 45 44
36 47 60 63 55 50 47 46 46 39 46 45 38 30 27 22 16 11 13 12 11 13 13 15 18 14 12 8 9 15 26 30 32 32 37 43 48 48 44 41 45 47 46
36 43 56 70 68 56 65 54 52 53 55 50 39 35 27 26 20 18 14 17 21 18 16 17 15 14 14 12 15 22 26 27 33 35 40 44 47 43 39 41 44 46 45
31 41 58 63 70 65 62 70 58 59 57 52 46 39 24 26 24 20 20 15 16 18 16 19 19 18 19 17 21 25 27 31 29 35 38 42 40 36 39 40 52 49 45
36 39 53 61 72 71 60 78 66 66 63 61 49 28 14 12 24 20 22 20 18 21 22 25 22 20 18 26 26 29 30 25 25 29 34 37 32 31 31 46 41 46 48
33 41 50 61 73 72 67 70 61 66 66 65 57 47 26 19 21 17 24 22 19 19 20 21 19 21 24 25 28 29 26 21 22 27 32 32 25 30 36 34 36 40 42
20 28 48 66 81 74 64 66 57 72 65 64 63 58 35 21 20 15 17 30 27 25 24 21 21 25 27 25 27 23 20 19 21 24 29 25 21 28 36 38 37 38 36
12 20 42 65 68 74 63 64 57 56 65 63 61 54 51 34 30 22 14 21 29 29 27 27 28 27 27 22 21 16 17 16 19 21 24 22 18 23 26 29 34 33 35
10 17 53 59 67 81 63 59 55 52 57 55 55 51 43 36 26 22 21 20 22 26 25 28 28 24 17 16 13 9 10 17 16 20 20 18 16 15 19 27 28 30 30
12 9 26 38 50 56 55 48 44 44 43 45 43 43 39 40 42 31 27 26 19 21 27 30 21 16 10 10 7 7 12 15 14 16 15 12 13 14 17 22 24 27 28
11 7 10 36 51 46 49 48 45 47 44 46 44 39 37 32 32 31 28 27 27 26 28 24 23 21 11 8 6 5 9 13 11 10 10 9 9 15 16 15 21 25 30
12 8 7 15 34 42 42 41 34 40 43 44 44 39 37 35 34 32 31 28 20 26 28 27 21 16 13 13 9 4 6 8 8 9 9 9 14 12 17 21 21 26 30
12 18 20 20 21 24 34 35 29 29 33 35 38 35 32 36 32 33 37 32 22 26 31 17 19 19 17 17 9 6 0 2 5 4 5 11 16 17 19 22 21 23 25
13 17 17 17 19 28 26 29 26 24 29 40 45 28 37 39 25 23 15 19 17 24 21 17 16 22 21 17 11 9 7 5 2 2 8 10 18 17 18 18 19 17 23
9 21 21 18 14 21 24 22 21 19 25 20 11 13 11 14 16 13 14 16 12 12 15 16 16 25 23 19 18 18 12 7 7 7 14 13 16 14 12 15 11 16 20
12 21 23 11 3 14 24 28 24 20 19 24 27 23 19 14 15 19 16 14 13 14 15 13 15 22 24 28 25 18 17 15 12 10 14 14 13 11 7 8 7 9 14
25 24 23 20 25 24 26 22 21 22 29 24 17 18 17 15 11 13 14 14 15 11 15 19 18 22 26 27 25 26 22 20 15 12 16 15 12 7 2 3 3 7 11
23 24 28 29 24 21 21 19 19 18 18 16 15 14 16 15 16 16 13 12 13 15 16 20 25 23 23 24 31 28 29 24 17 13 18 18 15 7 5 5 4 6 10
27 23 24 24 25 19 18 17 15 15 19 17 15 15 15 14 16 15 13 13 16 18 19 23 22 20 21 22 26 30 30 21 10 14 18 19 17 13 10 7 7 7 9
24 19 18 17 14 15 13 14 15 15 14 14 12 11 11 11 11 11 14 18 21 22 23 23 22 20 21 24 26 22 21 26 17 16 17 14 15 15 13 8 8 11 10
20 18 16 13 12 12 15 14 12 13 10 7 8 7 7 9 11 13 16 17 18 20 21 22 23 23 26 29 31 35 35 31 22 21 18 12 15 13 13 10 8 17 15
16 15 16 13 13 16 16 12 11 11 9 9 6 6 8 13 14 18 21 20 17 18 19 21 22 25 29 30 34 34 28 29 22 19 21 21 15 15 11 12 11 13 18
Wind_Direction_850mb
213 222 214 218 228 214 217 210 201 194 178 157 189 196 180 171 163 155 147 148 158 163 175 196 243 257 282 302 309 311 314 320 326 342 333 323 323 325 328 327 326 324 326
208 239 211 216 231 221 216 210 196 183 158 166 180 184 174 163 158 147 140 159 178 188 213 240 262 281 295 302 308 322 345 357 336 317 328 325 333 333 331 330 330 331 330
237 214 207 212 216 230 216 228 197 183 168 172 175 174 171 166 161 154 141 145 168 211 248 269 281 303 307 317 0 10 5 271 319 323 325 330 337 333 334 334 333 335 338
230 234 197 206 213 220 223 214 195 186 177 175 182 178 167 177 176 184 193 207 247 265 272 274 286 299 321 355 53 74 288 308 318 322 328 336 338 337 336 335 337 340 343
226 221 215 211 219 213 217 221 217 186 184 189 180 171 171 187 195 204 215 225 242 265 277 295 303 299 298 255 192 268 298 312 320 331 334 336 338 339 339 342 347 350 350
235 223 220 209 211 220 223 215 210 196 200 186 179 177 192 195 202 206 220 244 255 265 283 298 300 278 282 258 268 306 314 323 330 332 339 339 339 341 349 356 357 360 1
237 235 222 216 216 219 224 215 212 198 193 193 182 185 192 201 206 220 232 248 252 255 277 284 281 281 290 301 303 314 317 317 326 337 337 340 344 351 5 6 6 4 360
239 239 225 215 214 210 216 213 206 200 199 197 189 188 200 217 211 222 244 243 252 250 258 265 286 297 306 309 313 308 316 314 321 337 338 341 353 10 19 18 28 20 21
239 245 224 216 216 212 208 208 207 206 200 195 199 183 177 205 213 226 236 237 238 240 247 251 277 295 298 307 305 306 311 310 327 335 340 346 2 25 26 43 33 34 36
260 242 215 210 212 209 210 208 205 212 202 199 205 200 207 211 187 192 209 224 233 240 243 245 266 292 297 298 303 310 317 325 330 342 346 350 19 38 43 40 42 42 45
350 211 214 206 210 204 211 198 206 198 211 209 206 199 206 212 203 196 201 222 231 234 239 255 282 286 288 297 307 318 319 328 344 347 347 2 30 47 51 46 45 47 46
356 213 190 196 207 207 205 196 203 207 215 208 210 210 212 214 209 205 218 226 236 246 251 265 276 283 295 307 309 322 326 332 335 347 358 6 24 46 54 59 49 48 46
37 314 172 194 201 208 195 196 205 212 209 204 209 216 219 225 227 231 249 250 245 251 258 269 272 283 302 312 317 332 336 329 337 355 2 13 30 37 55 56 54 54 52
132 261 126 166 172 180 188 192 194 191 196 203 207 213 221 225 233 240 252 258 256 263 256 264 270 273 282 294 286 311 325 331 1 358 7 17 36 45 65 58 59 59 58
148 120 136 145 169 172 177 187 194 198 194 199 207 209 214 217 223 234 245 255 265 264 257 243 247 248 241 253 228 301 338 338 3 13 27 31 52 63 71 64 59 61 57
131 197 168 164 143 164 181 186 187 208 208 212 207 212 211 217 231 243 258 261 269 261 264 230 242 249 234 221 234 260 309 23 18 29 22 29 74 84 89 79 63 58 51
146 148 140 172 182 170 172 180 179 184 194 205 211 208 226 227 238 254 262 258 260 264 261 249 241 235 220 208 215 222 129 40 5 2 61 72 90 97 111 92 69 56 46
171 151 153 120 140 179 163 185 179 206 210 209 204 228 239 222 241 259 243 252 261 282 246 230 212 221 210 207 210 203 198 171 90 343 82 88 102 102 98 94 73 54 41
167 164 144 163 174 168 161 176 186 190 191 169 143 185 179 226 235 231 262 270 255 239 243 255 241 210 205 206 218 206 183 157 171 138 116 104 109 104 98 94 79 49 31
149 139 123 115 110 185 196 195 208 198 214 230 213 212 213 214 235 231 215 217 224 226 254 263 233 210 209 211 200 204 189 187 182 162 139 132 119 105 100 107 81 30 22
137 138 148 161 150 132 123 136 142 167 179 173 186 216 216 209 191 220 218 229 238 223 229 242 234 229 224 226 219 211 198 207 191 176 166 162 155 140 115 66 54 9 10
131 126 133 141 134 125 125 128 135 151 164 172 175 162 177 193 196 213 224 240 244 240 235 243 234 247 252 230 216 213 210 207 191 207 185 189 182 224 281 300 333 9 5
131 124 121 123 133 143 142 141 148 169 166 159 168 177 192 205 215 224 230 239 245 246 246 246 248 251 238 227 215 211 215 208 220 233 193 194 194 210 240 299 307 346 351
115 126 132 138 141 146 156 160 162 155 156 161 174 189 202 213 221 231 238 250 249 247 248 246 243 231 206 209 211 215 208 204 227 215 209 219 218 216 237 265 320 328 320
120 123 136 148 160 162 164 169 171 169 172 199 204 192 223 246 253 254 262 264 263 259 250 238 229 222 211 204 203 201 204 205 218 216 219 248 241 234 248 263 302 329 334
106 128 142 157 154 156 159 160 175 174 180 186 205 251 276 280 271 266 265 265 261 255 251 239 228 218 209 204 204 210 221 219 221 226 233 234 247 239 265 262 270 306 323